www.cux-wetter.de
Wetterdaten: Woche 29.09.14 - 05.10.14 (KW40)
Datum Zeit Temp. A. Feuchte A. Luftdruck Regen Wind Richtung Sonnenschein Solar Taupunkt Windchill Windben
29.09.2014 00:00 14,1 C 83 % 1021,5 hPa 0,0 l/m 0,0 km/h (0 Bft) N 0,00 h 0 W/m 11,3 C 14,1 C 0,0 km/h (0 Bft)
29.09.2014 01:00 13,7 C 84 % 1021,0 hPa 0,0 l/m 0,0 km/h (0 Bft) N 0,00 h 0 W/m 11,0 C 13,7 C 0,0 km/h (0 Bft)
29.09.2014 02:00 13,4 C 84 % 1020,5 hPa 0,0 l/m 0,0 km/h (0 Bft) N 0,00 h 0 W/m 10,8 C 13,4 C 0,0 km/h (0 Bft)
29.09.2014 03:00 12,9 C 85 % 1020,5 hPa 0,0 l/m 0,0 km/h (0 Bft) N 0,00 h 0 W/m 10,4 C 12,9 C 0,0 km/h (0 Bft)
29.09.2014 04:00 12,7 C 85 % 1020,5 hPa 0,0 l/m 0,0 km/h (0 Bft) N 0,00 h 0 W/m 10,2 C 12,7 C 0,0 km/h (0 Bft)
29.09.2014 05:00 12,2 C 85 % 1020,5 hPa 0,0 l/m 0,0 km/h (0 Bft) N 0,00 h 0 W/m 9,6 C 12,2 C 0,0 km/h (0 Bft)
29.09.2014 06:00 11,7 C 84 % 1020,5 hPa 0,0 l/m 0,0 km/h (0 Bft) N 0,00 h 0 W/m 9,1 C 11,7 C 0,0 km/h (0 Bft)
29.09.2014 07:00 11,9 C 85 % 1020,5 hPa 0,0 l/m 1,7 km/h (1 Bft) O 0,00 h 0 W/m 9,4 C 11,9 C 1,7 km/h (1 Bft)
29.09.2014 08:00 12,4 C 86 % 1020,5 hPa 0,0 l/m 2,9 km/h (1 Bft) O 0,00 h 0 W/m 10,1 C 12,4 C 2,9 km/h (1 Bft)
29.09.2014 09:00 13,2 C 87 % 1020,5 hPa 0,0 l/m 3,6 km/h (1 Bft) O 0,00 h 0 W/m 11,0 C 13,2 C 3,6 km/h (1 Bft)
29.09.2014 10:00 14,7 C 88 % 1020,5 hPa 0,0 l/m 1,1 km/h (1 Bft) O 0,00 h 0 W/m 12,8 C 14,7 C 1,1 km/h (1 Bft)
29.09.2014 11:00 16,5 C 86 % 1020,5 hPa 0,0 l/m 5,8 km/h (2 Bft) O 0,00 h 0 W/m 14,2 C 16,4 C 5,8 km/h (2 Bft)
29.09.2014 12:00 18,4 C 82 % 1020,5 hPa 0,0 l/m 8,5 km/h (2 Bft) NO 0,00 h 0 W/m 15,2 C 17,4 C 8,5 km/h (2 Bft)
29.09.2014 13:00 19,2 C 79 % 1020,5 hPa 0,0 l/m 7,8 km/h (2 Bft) O 0,00 h 0 W/m 15,4 C 18,6 C 7,8 km/h (2 Bft)
29.09.2014 14:00 19,4 C 78 % 1020,2 hPa 0,0 l/m 5,9 km/h (2 Bft) O 0,00 h 0 W/m 15,5 C 19,4 C 5,9 km/h (2 Bft)
29.09.2014 15:00 19,4 C 79 % 1020,3 hPa 0,0 l/m 2,3 km/h (1 Bft) O 0,00 h 0 W/m 15,6 C 19,4 C 2,3 km/h (1 Bft)
29.09.2014 16:00 19,1 C 80 % 1019,5 hPa 0,0 l/m 0,7 km/h (0 Bft) N 0,00 h 0 W/m 15,5 C 19,1 C 0,7 km/h (0 Bft)
29.09.2014 17:00 18,8 C 81 % 1019,5 hPa 0,0 l/m 0,3 km/h (0 Bft) N 0,00 h 0 W/m 15,4 C 18,8 C 0,3 km/h (0 Bft)
29.09.2014 18:00 18,1 C 82 % 1019,5 hPa 0,0 l/m 0,2 km/h (0 Bft) N 0,00 h 0 W/m 15,0 C 18,1 C 0,2 km/h (0 Bft)
29.09.2014 19:00 17,5 C 84 % 1019,5 hPa 0,0 l/m 0,3 km/h (0 Bft) N 0,00 h 0 W/m 14,7 C 17,5 C 0,3 km/h (0 Bft)
29.09.2014 20:00 17,1 C 85 % 1019,5 hPa 0,0 l/m 0,0 km/h (0 Bft) N 0,00 h 0 W/m 14,5 C 17,1 C 0,0 km/h (0 Bft)
29.09.2014 21:00 17,0 C 86 % 1020,2 hPa 0,0 l/m 0,0 km/h (0 Bft) S 0,00 h 0 W/m 14,6 C 17,0 C 0,0 km/h (0 Bft)
29.09.2014 22:00 17,0 C 87 % 1020,5 hPa 0,0 l/m 6,3 km/h (2 Bft) S-SW 0,00 h 0 W/m 14,8 C 16,5 C 6,3 km/h (2 Bft)
29.09.2014 23:00 17,0 C 89 % 1020,5 hPa 0,0 l/m 10,3 km/h (2 Bft) W-SW 0,00 h 0 W/m 15,2 C 15,3 C 10,3 km/h (2 Bft)
30.09.2014 00:00 17,0 C 90 % 1020,5 hPa 0,0 l/m 13,7 km/h (3 Bft) W 0,00 h 0 W/m 15,4 C 14,1 C 13,7 km/h (3 Bft)
30.09.2014 01:00 16,7 C 90 % 1020,5 hPa 0,0 l/m 13,5 km/h (3 Bft) W 0,00 h 0 W/m 15,0 C 13,8 C 13,5 km/h (3 Bft)
30.09.2014 02:00 16,8 C 90 % 1020,5 hPa 0,0 l/m 13,1 km/h (3 Bft) W-SW 0,00 h 0 W/m 15,2 C 14,0 C 13,1 km/h (3 Bft)
30.09.2014 03:00 16,7 C 92 % 1020,5 hPa 0,0 l/m 14,1 km/h (3 Bft) W-SW 0,00 h 0 W/m 15,4 C 13,6 C 14,1 km/h (3 Bft)
30.09.2014 04:00 16,7 C 92 % 1019,5 hPa 0,0 l/m 12,7 km/h (3 Bft) W-SW 0,00 h 0 W/m 15,4 C 14,0 C 12,7 km/h (3 Bft)
30.09.2014 05:00 16,7 C 92 % 1020,0 hPa 0,0 l/m 14,4 km/h (3 Bft) W 0,00 h 0 W/m 15,4 C 13,4 C 14,4 km/h (3 Bft)
30.09.2014 06:00 16,7 C 93 % 1020,3 hPa 0,0 l/m 11,4 km/h (2 Bft) W-SW 0,00 h 0 W/m 15,5 C 14,5 C 11,4 km/h (2 Bft)
30.09.2014 07:00 16,6 C 93 % 1020,3 hPa 0,0 l/m 13,4 km/h (3 Bft) W-SW 0,00 h 0 W/m 15,5 C 13,7 C 13,4 km/h (3 Bft)
30.09.2014 08:00 16,3 C 93 % 1020,5 hPa 0,0 l/m 11,0 km/h (2 Bft) W-SW 0,00 h 0 W/m 15,2 C 14,2 C 11,0 km/h (2 Bft)
30.09.2014 09:00 16,4 C 93 % 1020,5 hPa 0,0 l/m 7,5 km/h (2 Bft) W-SW 0,00 h 0 W/m 15,3 C 15,9 C 7,5 km/h (2 Bft)
30.09.2014 10:00 16,9 C 93 % 1021,5 hPa 0,0 l/m 10,0 km/h (2 Bft) W-SW 0,00 h 0 W/m 15,8 C 15,3 C 10,0 km/h (2 Bft)
30.09.2014 11:00 17,6 C 93 % 1021,3 hPa 0,0 l/m 12,9 km/h (3 Bft) W-SW 0,00 h 0 W/m 16,5 C 15,1 C 12,9 km/h (3 Bft)
30.09.2014 12:00 17,9 C 92 % 1021,5 hPa 0,0 l/m 18,8 km/h (3 Bft) W 0,00 h 0 W/m 16,5 C 13,7 C 18,8 km/h (3 Bft)
30.09.2014 13:00 17,7 C 91 % 1021,5 hPa 0,0 l/m 19,9 km/h (4 Bft) W 0,00 h 0 W/m 16,3 C 13,3 C 19,9 km/h (4 Bft)
30.09.2014 14:00 17,8 C 91 % 1021,5 hPa 0,0 l/m 17,5 km/h (3 Bft) W 0,00 h 0 W/m 16,3 C 14,0 C 17,5 km/h (3 Bft)
30.09.2014 15:00 18,3 C 90 % 1021,5 hPa 0,0 l/m 15,4 km/h (3 Bft) W-NW 0,00 h 0 W/m 16,6 C 15,1 C 15,4 km/h (3 Bft)
30.09.2014 16:00 18,1 C 88 % 1021,5 hPa 0,0 l/m 13,2 km/h (3 Bft) W-NW 0,00 h 0 W/m 16,1 C 15,5 C 13,2 km/h (3 Bft)
30.09.2014 17:00 17,9 C 88 % 1021,5 hPa 0,0 l/m 11,4 km/h (2 Bft) NW 0,00 h 0 W/m 15,9 C 15,9 C 11,4 km/h (2 Bft)
30.09.2014 18:00 17,6 C 88 % 1022,3 hPa 0,0 l/m 4,7 km/h (1 Bft) W-SW 0,00 h 0 W/m 15,6 C 17,3 C 4,7 km/h (1 Bft)
30.09.2014 19:00 17,2 C 89 % 1022,5 hPa 0,0 l/m 0,1 km/h (0 Bft) N 0,00 h 0 W/m 15,3 C 17,2 C 0,1 km/h (0 Bft)
30.09.2014 20:00 16,9 C 89 % 1022,5 hPa 0,0 l/m 0,0 km/h (0 Bft) N 0,00 h 0 W/m 15,1 C 16,9 C 0,0 km/h (0 Bft)
30.09.2014 21:00 16,6 C 90 % 1022,5 hPa 0,0 l/m 2,0 km/h (1 Bft) W-SW 0,00 h 0 W/m 14,9 C 16,6 C 2,0 km/h (1 Bft)
30.09.2014 22:00 16,4 C 90 % 1022,5 hPa 0,0 l/m 7,6 km/h (2 Bft) W 0,00 h 0 W/m 14,8 C 15,7 C 7,6 km/h (2 Bft)
30.09.2014 23:00 15,9 C 90 % 1023,0 hPa 0,0 l/m 3,0 km/h (1 Bft) W 0,00 h 0 W/m 14,2 C 15,8 C 3,0 km/h (1 Bft)
01.10.2014 00:00 15,3 C 90 % 1023,3 hPa 0,0 l/m 1,1 km/h (1 Bft) W 0,00 h 0 W/m 13,6 C 15,3 C 1,1 km/h (1 Bft)
01.10.2014 01:00 15,4 C 90 % 1023,5 hPa 0,0 l/m 1,2 km/h (1 Bft) SW 0,00 h 0 W/m 13,7 C 15,4 C 1,2 km/h (1 Bft)
01.10.2014 02:00 14,9 C 90 % 1023,5 hPa 0,0 l/m 5,8 km/h (2 Bft) SW 0,00 h 0 W/m 13,3 C 14,6 C 5,8 km/h (2 Bft)
01.10.2014 03:00 14,4 C 89 % 1023,5 hPa 0,0 l/m 0,1 km/h (0 Bft) N 0,00 h 0 W/m 12,6 C 14,4 C 0,1 km/h (0 Bft)
01.10.2014 04:00 13,9 C 89 % 1023,5 hPa 0,0 l/m 0,2 km/h (0 Bft) N 0,00 h 0 W/m 12,1 C 13,9 C 0,2 km/h (0 Bft)
01.10.2014 05:00 13,5 C 89 % 1023,5 hPa 0,0 l/m 0,0 km/h (0 Bft) N 0,00 h 0 W/m 11,7 C 13,5 C 0,0 km/h (0 Bft)
01.10.2014 06:00 13,3 C 89 % 1023,5 hPa 0,0 l/m 0,0 km/h (0 Bft) N 0,00 h 0 W/m 11,5 C 13,3 C 0,0 km/h (0 Bft)
01.10.2014 07:00 13,6 C 90 % 1023,5 hPa 0,0 l/m 0,0 km/h (0 Bft) N 0,00 h 0 W/m 12,0 C 13,6 C 0,0 km/h (0 Bft)
01.10.2014 08:00 14,0 C 90 % 1023,5 hPa 0,0 l/m 0,3 km/h (0 Bft) N 0,00 h 0 W/m 12,4 C 14,0 C 0,3 km/h (0 Bft)
01.10.2014 09:00 14,6 C 91 % 1023,8 hPa 0,0 l/m 2,1 km/h (1 Bft) SW 0,00 h 0 W/m 13,1 C 14,6 C 2,1 km/h (1 Bft)
01.10.2014 10:00 15,8 C 91 % 1024,5 hPa 0,0 l/m 7,9 km/h (2 Bft) S-SW 0,00 h 0 W/m 14,4 C 14,7 C 7,9 km/h (2 Bft)
01.10.2014 11:00 17,3 C 91 % 1024,5 hPa 0,0 l/m 10,4 km/h (2 Bft) W-SW 0,00 h 0 W/m 15,7 C 15,5 C 10,4 km/h (2 Bft)
01.10.2014 12:00 18,8 C 86 % 1024,5 hPa 0,0 l/m 14,7 km/h (3 Bft) W 0,00 h 0 W/m 16,3 C 15,9 C 14,7 km/h (3 Bft)
01.10.2014 13:00 19,6 C 78 % 1024,5 hPa 0,3 l/m 18,2 km/h (3 Bft) W 0,00 h 0 W/m 15,7 C 16,1 C 18,2 km/h (3 Bft)
01.10.2014 14:00 19,8 C 77 % 1024,5 hPa 0,0 l/m 16,1 km/h (3 Bft) W 0,00 h 0 W/m 15,7 C 16,8 C 16,1 km/h (3 Bft)
01.10.2014 15:00 20,6 C 74 % 1024,5 hPa 0,0 l/m 17,5 km/h (3 Bft) W 0,00 h 0 W/m 15,8 C 17,5 C 17,5 km/h (3 Bft)
01.10.2014 16:00 19,9 C 76 % 1023,5 hPa 0,0 l/m 11,8 km/h (2 Bft) W 0,00 h 0 W/m 15,4 C 18,1 C 11,8 km/h (2 Bft)
01.10.2014 17:00 19,2 C 78 % 1023,5 hPa 0,0 l/m 3,8 km/h (1 Bft) W-NW 0,00 h 0 W/m 15,2 C 18,9 C 3,8 km/h (1 Bft)
01.10.2014 18:00 18,3 C 81 % 1024,5 hPa 0,0 l/m 6,6 km/h (2 Bft) N 0,00 h 0 W/m 14,9 C 17,5 C 6,6 km/h (2 Bft)
01.10.2014 19:00 17,1 C 85 % 1024,5 hPa 0,0 l/m 1,2 km/h (1 Bft) N 0,00 h 0 W/m 14,4 C 17,1 C 1,2 km/h (1 Bft)
01.10.2014 20:00 16,8 C 87 % 1024,5 hPa 0,0 l/m 0,0 km/h (0 Bft) N 0,00 h 0 W/m 14,5 C 16,8 C 0,0 km/h (0 Bft)
01.10.2014 21:00 16,7 C 87 % 1024,5 hPa 0,0 l/m 0,0 km/h (0 Bft) N 0,00 h 0 W/m 14,5 C 16,7 C 0,0 km/h (0 Bft)
01.10.2014 22:00 16,6 C 88 % 1025,3 hPa 0,0 l/m 7,6 km/h (2 Bft) W-SW 0,00 h 0 W/m 14,6 C 14,8 C 7,6 km/h (2 Bft)
01.10.2014 23:00 16,6 C 90 % 1025,5 hPa 0,0 l/m 12,5 km/h (2 Bft) W 0,00 h 0 W/m 15,0 C 14,0 C 12,5 km/h (2 Bft)
02.10.2014 00:00 16,4 C 91 % 1025,5 hPa 0,0 l/m 9,4 km/h (2 Bft) SW 0,00 h 0 W/m 15,0 C 15,0 C 9,4 km/h (2 Bft)
02.10.2014 01:00 16,2 C 91 % 1025,5 hPa 0,0 l/m 8,0 km/h (2 Bft) W-SW 0,00 h 0 W/m 14,7 C 15,4 C 8,0 km/h (2 Bft)
02.10.2014 02:00 15,9 C 91 % 1025,5 hPa 0,0 l/m 0,9 km/h (0 Bft) N 0,00 h 0 W/m 14,5 C 15,9 C 0,9 km/h (0 Bft)
02.10.2014 03:00 15,6 C 91 % 1025,5 hPa 0,0 l/m 1,1 km/h (1 Bft) W-SW 0,00 h 0 W/m 14,1 C 15,6 C 1,1 km/h (1 Bft)
02.10.2014 04:00 15,6 C 91 % 1025,5 hPa 0,0 l/m 2,5 km/h (1 Bft) W-SW 0,00 h 0 W/m 14,1 C 15,6 C 2,5 km/h (1 Bft)
02.10.2014 05:00 15,8 C 91 % 1026,3 hPa 0,0 l/m 5,2 km/h (1 Bft) W-SW 0,00 h 0 W/m 14,4 C 15,8 C 5,2 km/h (1 Bft)
02.10.2014 06:00 15,9 C 91 % 1026,5 hPa 0,0 l/m 0,8 km/h (0 Bft) N 0,00 h 0 W/m 14,4 C 15,9 C 0,8 km/h (0 Bft)
02.10.2014 07:00 15,9 C 92 % 1026,5 hPa 0,0 l/m 1,8 km/h (1 Bft) W-SW 0,00 h 0 W/m 14,5 C 15,9 C 1,8 km/h (1 Bft)
02.10.2014 08:00 16,1 C 92 % 1026,8 hPa 0,0 l/m 0,5 km/h (0 Bft) N 0,00 h 0 W/m 14,8 C 16,1 C 0,5 km/h (0 Bft)
02.10.2014 09:00 16,5 C 92 % 1027,5 hPa 0,0 l/m 0,4 km/h (0 Bft) W-SW 0,00 h 0 W/m 15,2 C 16,5 C 0,4 km/h (0 Bft)
02.10.2014 10:00 17,0 C 92 % 1027,5 hPa 0,0 l/m 3,5 km/h (1 Bft) W-SW 0,00 h 0 W/m 15,7 C 17,0 C 3,5 km/h (1 Bft)
02.10.2014 11:00 17,8 C 91 % 1027,5 hPa 0,0 l/m 1,7 km/h (1 Bft) N-NO 0,00 h 0 W/m 16,2 C 17,8 C 1,7 km/h (1 Bft)
02.10.2014 12:00 18,2 C 86 % 1027,5 hPa 0,0 l/m 0,3 km/h (0 Bft) N 0,00 h 0 W/m 15,7 C 18,2 C 0,3 km/h (0 Bft)
02.10.2014 13:00 18,6 C 83 % 1027,5 hPa 0,0 l/m 6,9 km/h (2 Bft) N-NO 0,00 h 0 W/m 15,6 C 18,1 C 6,9 km/h (2 Bft)
02.10.2014 14:00 18,5 C 82 % 1027,5 hPa 0,0 l/m 7,2 km/h (2 Bft) NO 0,00 h 0 W/m 15,3 C 17,9 C 7,2 km/h (2 Bft)
02.10.2014 15:00 18,4 C 82 % 1027,5 hPa 0,0 l/m 13,3 km/h (3 Bft) N 0,00 h 0 W/m 15,2 C 15,9 C 13,3 km/h (3 Bft)
02.10.2014 16:00 18,5 C 79 % 1027,5 hPa 0,0 l/m 12,5 km/h (2 Bft) NO 0,00 h 0 W/m 14,7 C 16,3 C 12,5 km/h (2 Bft)
02.10.2014 17:00 18,0 C 79 % 1027,5 hPa 0,0 l/m 2,7 km/h (1 Bft) N 0,00 h 0 W/m 14,3 C 17,8 C 2,7 km/h (1 Bft)
02.10.2014 18:00 17,4 C 80 % 1027,5 hPa 0,0 l/m 0,5 km/h (0 Bft) N 0,00 h 0 W/m 13,9 C 17,4 C 0,5 km/h (0 Bft)
02.10.2014 19:00 16,7 C 82 % 1027,5 hPa 0,0 l/m 0,0 km/h (0 Bft) N 0,00 h 0 W/m 13,5 C 16,7 C 0,0 km/h (0 Bft)
02.10.2014 20:00 16,1 C 83 % 1027,5 hPa 0,0 l/m 0,0 km/h (0 Bft) N 0,00 h 0 W/m 13,2 C 16,1 C 0,0 km/h (0 Bft)
02.10.2014 21:00 15,8 C 85 % 1027,5 hPa 0,0 l/m 0,0 km/h (0 Bft) N 0,00 h 0 W/m 13,3 C 15,8 C 0,0 km/h (0 Bft)
02.10.2014 22:00 15,7 C 86 % 1027,0 hPa 0,0 l/m 0,0 km/h (0 Bft) N 0,00 h 0 W/m 13,4 C 15,7 C 0,0 km/h (0 Bft)
02.10.2014 23:00 16,0 C 87 % 1026,5 hPa 0,0 l/m 0,0 km/h (0 Bft) N 0,00 h 0 W/m 13,8 C 16,0 C 0,0 km/h (0 Bft)
03.10.2014 00:00 15,9 C 88 % 1026,5 hPa 0,0 l/m 0,1 km/h (0 Bft) N 0,00 h 0 W/m 13,9 C 15,9 C 0,1 km/h (0 Bft)
03.10.2014 01:00 16,0 C 88 % 1026,5 hPa 0,0 l/m 0,0 km/h (0 Bft) N 0,00 h 0 W/m 14,1 C 16,0 C 0,0 km/h (0 Bft)
03.10.2014 02:00 16,0 C 89 % 1025,8 hPa 0,0 l/m 3,6 km/h (1 Bft) S-SO 0,00 h 0 W/m 14,2 C 15,7 C 3,6 km/h (1 Bft)
03.10.2014 03:00 16,2 C 90 % 1025,5 hPa 0,0 l/m 8,0 km/h (2 Bft) S 0,00 h 0 W/m 14,6 C 15,4 C 8,0 km/h (2 Bft)
03.10.2014 04:00 16,0 C 91 % 1025,5 hPa 0,0 l/m 4,6 km/h (1 Bft) S 0,00 h 0 W/m 14,6 C 15,9 C 4,6 km/h (1 Bft)
03.10.2014 05:00 16,0 C 91 % 1024,5 hPa 0,0 l/m 7,7 km/h (2 Bft) S 0,00 h 0 W/m 14,5 C 15,3 C 7,7 km/h (2 Bft)
03.10.2014 06:00 16,0 C 91 % 1024,5 hPa 0,0 l/m 7,1 km/h (2 Bft) S-SW 0,00 h 0 W/m 14,5 C 15,4 C 7,1 km/h (2 Bft)
03.10.2014 07:00 15,8 C 91 % 1024,5 hPa 0,0 l/m 2,2 km/h (1 Bft) S 0,00 h 0 W/m 14,3 C 15,8 C 2,2 km/h (1 Bft)
03.10.2014 08:00 15,8 C 92 % 1024,5 hPa 0,0 l/m 5,4 km/h (2 Bft) S-SO 0,00 h 0 W/m 14,4 C 15,6 C 5,4 km/h (2 Bft)
03.10.2014 09:00 16,3 C 92 % 1024,7 hPa 0,0 l/m 6,5 km/h (2 Bft) S 0,00 h 0 W/m 15,0 C 16,0 C 6,5 km/h (2 Bft)
03.10.2014 10:00 17,2 C 92 % 1025,5 hPa 0,0 l/m 3,9 km/h (1 Bft) S-SW 0,00 h 0 W/m 15,9 C 17,2 C 3,9 km/h (1 Bft)
03.10.2014 11:00 18,8 C 89 % 1024,5 hPa 0,0 l/m 9,9 km/h (2 Bft) S-SW 0,00 h 0 W/m 16,8 C 17,3 C 9,9 km/h (2 Bft)
03.10.2014 12:00 21,1 C 81 % 1024,5 hPa 0,0 l/m 5,9 km/h (2 Bft) SW 0,00 h 0 W/m 17,7 C 20,9 C 5,9 km/h (2 Bft)
03.10.2014 13:00 21,0 C 78 % 1024,5 hPa 0,0 l/m 8,5 km/h (2 Bft) N-NO 0,00 h 0 W/m 17,0 C 20,2 C 8,5 km/h (2 Bft)
03.10.2014 14:00 20,3 C 81 % 1023,5 hPa 0,0 l/m 7,2 km/h (2 Bft) N-NO 0,00 h 0 W/m 16,8 C 19,9 C 7,2 km/h (2 Bft)
03.10.2014 15:00 21,3 C 74 % 1023,5 hPa 0,0 l/m 15,9 km/h (3 Bft) W-NW 0,00 h 0 W/m 16,5 C 18,8 C 15,9 km/h (3 Bft)
03.10.2014 16:00 20,8 C 76 % 1023,5 hPa 0,0 l/m 18,1 km/h (3 Bft) N-NO 0,00 h 0 W/m 16,4 C 17,6 C 18,1 km/h (3 Bft)
03.10.2014 17:00 19,7 C 81 % 1022,5 hPa 0,0 l/m 10,4 km/h (2 Bft) N-NO 0,00 h 0 W/m 16,2 C 17,8 C 10,4 km/h (2 Bft)
03.10.2014 18:00 18,5 C 84 % 1022,5 hPa 0,0 l/m 0,2 km/h (0 Bft) N 0,00 h 0 W/m 15,7 C 18,5 C 0,2 km/h (0 Bft)
03.10.2014 19:00 17,3 C 85 % 1022,5 hPa 0,0 l/m 0,0 km/h (0 Bft) N 0,00 h 0 W/m 14,8 C 17,3 C 0,0 km/h (0 Bft)
03.10.2014 20:00 16,6 C 86 % 1022,5 hPa 0,0 l/m 0,0 km/h (0 Bft) N 0,00 h 0 W/m 14,3 C 16,6 C 0,0 km/h (0 Bft)
03.10.2014 21:00 16,1 C 86 % 1021,8 hPa 0,0 l/m 1,4 km/h (1 Bft) S-SO 0,00 h 0 W/m 13,7 C 16,1 C 1,4 km/h (1 Bft)
03.10.2014 22:00 15,8 C 86 % 1021,5 hPa 0,0 l/m 9,5 km/h (2 Bft) S 0,00 h 0 W/m 13,5 C 14,3 C 9,5 km/h (2 Bft)
03.10.2014 23:00 15,6 C 85 % 1021,5 hPa 0,0 l/m 12,0 km/h (2 Bft) S 0,00 h 0 W/m 13,1 C 13,0 C 12,0 km/h (2 Bft)
04.10.2014 00:00 15,6 C 83 % 1021,5 hPa 0,0 l/m 12,4 km/h (2 Bft) S 0,00 h 0 W/m 12,8 C 12,9 C 12,4 km/h (2 Bft)
04.10.2014 01:00 15,2 C 82 % 1020,8 hPa 0,0 l/m 13,6 km/h (3 Bft) S 0,00 h 0 W/m 12,1 C 11,9 C 13,6 km/h (3 Bft)
04.10.2014 02:00 14,9 C 82 % 1020,5 hPa 0,0 l/m 15,4 km/h (3 Bft) S 0,00 h 0 W/m 11,7 C 10,9 C 15,4 km/h (3 Bft)
04.10.2014 03:00 14,4 C 82 % 1020,0 hPa 0,0 l/m 17,3 km/h (3 Bft) S 0,00 h 0 W/m 11,4 C 9,8 C 17,3 km/h (3 Bft)
04.10.2014 04:00 14,0 C 82 % 1019,5 hPa 0,0 l/m 15,0 km/h (3 Bft) S 0,00 h 0 W/m 11,1 C 10,1 C 15,0 km/h (3 Bft)
04.10.2014 05:00 13,8 C 83 % 1019,5 hPa 0,0 l/m 14,7 km/h (3 Bft) S-SO 0,00 h 0 W/m 10,9 C 9,8 C 14,7 km/h (3 Bft)
04.10.2014 06:00 13,4 C 84 % 1018,5 hPa 0,0 l/m 11,6 km/h (2 Bft) S 0,00 h 0 W/m 10,7 C 10,6 C 11,6 km/h (2 Bft)
04.10.2014 07:00 12,9 C 85 % 1018,5 hPa 0,0 l/m 13,1 km/h (3 Bft) S-SO 0,00 h 0 W/m 10,4 C 9,4 C 13,1 km/h (3 Bft)
04.10.2014 08:00 12,8 C 86 % 1018,5 hPa 0,0 l/m 14,3 km/h (3 Bft) S 0,00 h 0 W/m 10,5 C 8,8 C 14,3 km/h (3 Bft)
04.10.2014 09:00 13,1 C 86 % 1018,5 hPa 0,0 l/m 16,3 km/h (3 Bft) S 0,00 h 0 W/m 10,8 C 8,5 C 16,3 km/h (3 Bft)
04.10.2014 10:00 14,2 C 86 % 1018,5 hPa 0,0 l/m 19,7 km/h (3 Bft) S 0,00 h 0 W/m 11,9 C 8,8 C 19,7 km/h (3 Bft)
04.10.2014 11:00 16,8 C 81 % 1018,0 hPa 0,0 l/m 18,7 km/h (3 Bft) S 0,00 h 0 W/m 13,4 C 12,3 C 18,7 km/h (3 Bft)
04.10.2014 12:00 19,3 C 74 % 1017,5 hPa 0,0 l/m 22,5 km/h (4 Bft) S 0,00 h 0 W/m 14,4 C 14,9 C 22,5 km/h (4 Bft)
04.10.2014 13:00 21,0 C 67 % 1016,8 hPa 0,0 l/m 21,0 km/h (4 Bft) S 0,00 h 0 W/m 14,6 C 17,4 C 21,0 km/h (4 Bft)
04.10.2014 14:00 21,8 C 58 % 1015,8 hPa 0,0 l/m 33,4 km/h (5 Bft) S-SW 0,00 h 0 W/m 13,0 C 17,0 C 33,4 km/h (5 Bft)
04.10.2014 15:00 21,9 C 56 % 1015,0 hPa 0,0 l/m 36,9 km/h (5 Bft) S-SW 0,00 h 0 W/m 12,6 C 16,8 C 36,9 km/h (5 Bft)
04.10.2014 16:00 21,3 C 56 % 1014,5 hPa 0,0 l/m 33,4 km/h (5 Bft) S-SW 0,00 h 0 W/m 12,0 C 16,3 C 33,4 km/h (5 Bft)
04.10.2014 17:00 20,5 C 57 % 1014,5 hPa 0,0 l/m 23,9 km/h (4 Bft) S 0,00 h 0 W/m 11,6 C 16,4 C 23,9 km/h (4 Bft)
04.10.2014 18:00 19,1 C 61 % 1014,5 hPa 0,0 l/m 18,1 km/h (3 Bft) S 0,00 h 0 W/m 11,3 C 15,6 C 18,1 km/h (3 Bft)
04.10.2014 19:00 17,5 C 65 % 1014,5 hPa 0,0 l/m 13,8 km/h (3 Bft) S 0,00 h 0 W/m 10,8 C 14,7 C 13,8 km/h (3 Bft)
04.10.2014 20:00 16,8 C 68 % 1014,5 hPa 0,0 l/m 11,3 km/h (2 Bft) S 0,00 h 0 W/m 10,9 C 14,6 C 11,3 km/h (2 Bft)
04.10.2014 21:00 16,1 C 71 % 1014,5 hPa 0,0 l/m 12,9 km/h (3 Bft) S-SW 0,00 h 0 W/m 10,9 C 13,3 C 12,9 km/h (3 Bft)
04.10.2014 22:00 15,5 C 74 % 1014,5 hPa 0,0 l/m 13,6 km/h (3 Bft) S 0,00 h 0 W/m 10,9 C 12,3 C 13,6 km/h (3 Bft)
04.10.2014 23:00 15,0 C 75 % 1015,0 hPa 0,0 l/m 15,3 km/h (3 Bft) S 0,00 h 0 W/m 10,5 C 11,1 C 15,3 km/h (3 Bft)
05.10.2014 00:00 14,5 C 75 % 1015,0 hPa 0,0 l/m 15,7 km/h (3 Bft) S 0,00 h 0 W/m 10,1 C 10,3 C 15,7 km/h (3 Bft)
05.10.2014 01:00 14,0 C 75 % 1014,5 hPa 0,0 l/m 16,1 km/h (3 Bft) S 0,00 h 0 W/m 9,7 C 9,6 C 16,1 km/h (3 Bft)
05.10.2014 02:00 13,7 C 76 % 1014,5 hPa 0,0 l/m 14,4 km/h (3 Bft) S 0,00 h 0 W/m 9,5 C 9,9 C 14,4 km/h (3 Bft)
05.10.2014 03:00 13,3 C 77 % 1014,5 hPa 0,0 l/m 15,5 km/h (3 Bft) S 0,00 h 0 W/m 9,3 C 9,0 C 15,5 km/h (3 Bft)
05.10.2014 04:00 12,9 C 78 % 1014,5 hPa 0,0 l/m 14,3 km/h (3 Bft) S-SO 0,00 h 0 W/m 9,2 C 9,0 C 14,3 km/h (3 Bft)
05.10.2014 05:00 12,7 C 79 % 1014,5 hPa 0,0 l/m 8,5 km/h (2 Bft) S 0,00 h 0 W/m 9,1 C 10,8 C 8,5 km/h (2 Bft)
05.10.2014 06:00 12,2 C 80 % 1014,8 hPa 0,0 l/m 6,3 km/h (2 Bft) S-SO 0,00 h 0 W/m 8,8 C 11,5 C 6,3 km/h (2 Bft)
05.10.2014 07:00 11,8 C 81 % 1015,5 hPa 0,0 l/m 1,2 km/h (1 Bft) SO 0,00 h 0 W/m 8,6 C 11,8 C 1,2 km/h (1 Bft)
05.10.2014 08:00 11,9 C 82 % 1015,5 hPa 0,0 l/m 0,8 km/h (0 Bft) SO 0,00 h 0 W/m 8,8 C 11,9 C 0,8 km/h (0 Bft)
05.10.2014 09:00 12,4 C 82 % 1016,3 hPa 0,0 l/m 3,6 km/h (1 Bft) S 0,00 h 0 W/m 9,4 C 12,4 C 3,6 km/h (1 Bft)
05.10.2014 10:00 13,4 C 81 % 1016,5 hPa 0,0 l/m 6,7 km/h (2 Bft) S-SW 0,00 h 0 W/m 10,2 C 13,1 C 6,7 km/h (2 Bft)
05.10.2014 11:00 14,8 C 78 % 1016,5 hPa 0,0 l/m 6,2 km/h (2 Bft) S-SW 0,00 h 0 W/m 11,0 C 14,8 C 6,2 km/h (2 Bft)
05.10.2014 12:00 16,3 C 75 % 1016,5 hPa 0,0 l/m 1,5 km/h (1 Bft) O-NO 0,00 h 0 W/m 11,8 C 16,3 C 1,5 km/h (1 Bft)
05.10.2014 13:00 17,1 C 73 % 1016,5 hPa 0,0 l/m 4,7 km/h (1 Bft) O 0,00 h 0 W/m 12,2 C 16,5 C 4,7 km/h (1 Bft)
05.10.2014 14:00 17,8 C 72 % 1016,5 hPa 0,0 l/m 12,0 km/h (2 Bft) O 0,00 h 0 W/m 12,6 C 15,6 C 12,0 km/h (2 Bft)
05.10.2014 15:00 17,2 C 73 % 1016,3 hPa 0,0 l/m 14,8 km/h (3 Bft) O 0,00 h 0 W/m 12,3 C 13,9 C 14,8 km/h (3 Bft)
05.10.2014 16:00 17,1 C 74 % 1015,8 hPa 0,0 l/m 7,4 km/h (2 Bft) O 0,00 h 0 W/m 12,5 C 16,1 C 7,4 km/h (2 Bft)
05.10.2014 17:00 17,0 C 75 % 1015,5 hPa 0,0 l/m 7,4 km/h (2 Bft) O-SO 0,00 h 0 W/m 12,6 C 16,0 C 7,4 km/h (2 Bft)
05.10.2014 18:00 16,0 C 77 % 1015,5 hPa 0,0 l/m 0,1 km/h (0 Bft) N 0,00 h 0 W/m 12,0 C 16,0 C 0,1 km/h (0 Bft)
05.10.2014 19:00 15,1 C 79 % 1015,5 hPa 0,0 l/m 0,7 km/h (0 Bft) SO 0,00 h 0 W/m 11,6 C 15,1 C 0,7 km/h (0 Bft)
05.10.2014 20:00 14,8 C 81 % 1015,5 hPa 0,0 l/m 4,5 km/h (1 Bft) SO 0,00 h 0 W/m 11,6 C 14,5 C 4,5 km/h (1 Bft)
05.10.2014 21:00 14,4 C 80 % 1016,5 hPa 0,0 l/m 5,5 km/h (2 Bft) S 0,00 h 0 W/m 11,0 C 13,9 C 5,5 km/h (2 Bft)
05.10.2014 22:00 13,9 C 80 % 1016,5 hPa 0,0 l/m 3,3 km/h (1 Bft) S 0,00 h 0 W/m 10,5 C 13,8 C 3,3 km/h (1 Bft)
05.10.2014 23:00 13,4 C 81 % 1015,8 hPa 0,0 l/m 3,3 km/h (1 Bft) S-SO 0,00 h 0 W/m 10,2 C 13,4 C 3,3 km/h (1 Bft)
Min-Datum _ 29.09.14 04.10.14 04.10.14 - 29.09.14 - - - 05.10.14 05.10.14 29.09.14
_ Min-Zeit 06:45 15:45 15:30 - 00:00 - - - 07:15 04:00 00:00
Minimum _ 11,6 C 54 % 1014,5 hPa - 0,0 km/h (0 Bft) - - - 8,5 C 7,9 C 0,0 km/h (0 Bft)
Max-Datum _ 03.10.14 30.09.14 02.10.14 01.10.14 04.10.14 - 29.09.14 29.09.14 03.10.14 03.10.14 04.10.14
_ Max-Zeit 13:00 10:00 08:45 13:30 14:15 - 00:00 00:00 12:00 13:00 14:15
Maximum _ 22,1 C 94 % 1027,5 hPa 0,3 l/m 36,9 km/h
S-SW (5 Bft)
- 0,00 h 0 W/m 17,8 C 22,1 C 36,9 km/h
S-SW (5 Bft)
Durchschnitt _ 16,4 C 84 % 1021,3 hPa #0,3 l/m 7,7 km/h (2 Bft) S #0 min. 0 W/m 13,5 C 15,0 C 7,7 km/h (2 Bft)
copyright by Holger Just